Regional Weather Roundup
Issued by NWS

Home | Current Version | Previous Version | Text Only | Print | Product List | Glossary Off
Versions: 1 2 3 4 5 6 7 8 9 10 11 12 13 14 15 16 17 18 19 20 21 22 23 24 25 26 27 28 29 30 31 32 33 34 35 36 37 38 39 40 41 42 43 44 45 46 47 48 49 50

000
ASUS43 KTOP 281459
RWRKS

WEATHER ROUNDUP FOR KANSAS
NATIONAL WEATHER SERVICE GOODLAND KS
1000 AM CDT SUN AUG 28 2016

NOTE:  "FAIR" INDICATES FEW OR NO CLOUDS BELOW 12,000 FEET WITH NO
SIGNIFICANT WEATHER AND/OR OBSTRUCTIONS TO VISIBILITY.

KSZ001>006-013>018-027>032-041>047-281600-
NORTHWEST KANSAS

CITY           SKY/WX    TMP DP  RH WIND       PRES   REMARKS
GOODLAND       CLOUDY    65  56  72 S8        30.13R
HAYS           SUNNY     75  61  60 S12       30.09R
HILL CITY      MOSUNNY   72  63  73 SW3       30.11R
RUSSELL        CLOUDY    78  67  68 S9        30.08R
$$

KSZ061>065-074>080-084>089-281600-
SOUTHWEST KANSAS

CITY           SKY/WX    TMP DP  RH WIND       PRES   REMARKS
DODGE CITY     PTSUNNY   71  64  78 S7        30.13R
ELKHART          N/A     70  59  68 S12         N/A
GARDEN CITY    MOSUNNY   68  60  75 S7        30.14R
GREAT BEND     SUNNY     77  63  61 S7        30.10R
LIBERAL        PTSUNNY   70  63  78 SW10      30.15R
$$

KSZ066>073-081>083-090>101-281600-
SOUTHEAST KANSAS

CITY           SKY/WX    TMP DP  RH WIND       PRES   REMARKS
CHANUTE        MOSUNNY   82  74  76 S9        30.13S
COFFEYVILLE    SUNNY     83  73  72 VRB6      30.13R
HUTCHINSON     SUNNY     79  68  69 S9        30.11R
MEDICINE LODGE   N/A     76  65  68 S9        30.11S
NEWTON         SUNNY     80  70  71 S10       30.12S
PARSONS        SUNNY     82  73  74 S8        30.14R
WICHITA INTL   MOSUNNY   81  69  67 S9        30.10S
WICHITA JABRA  SUNNY     80  71  74 S8        30.11S
WINFIELD       SUNNY     79  72  79 SE12      30.13R
$$

KSZ007>012-019>026-033>040-048>060-102>105-281600-
NORTHEAST KANSAS

CITY           SKY/WX    TMP DP  RH WIND       PRES   REMARKS
CONCORDIA      SUNNY     79  69  71 S10       30.10R
EMPORIA        SUNNY     78  72  81 S8        30.12R
LAWRENCE       SUNNY     80  74  81 E3        30.12S
MANHATTAN      SUNNY     81  72  74 CALM      30.09S
OLATHE IND     SUNNY     80  72  76 S8        30.15R
OLATHE EXE     SUNNY     79  71  76 S6        30.14S
SALINA         SUNNY     81  71  71 S7        30.09S
TOPEKA BILLARD SUNNY     80  72  76 S6        30.11S
TOPEKA FORBES  MOSUNNY   82  72  71 S6        30.12S
$$



USA.gov is the U.S. government's official web portal to all federal, state and local government web resources and services.